TimeAST,TemperatureF,Dew PointF,Humidity,Sea Level PressureIn,VisibilityMPH,Wind Direction,Wind SpeedMPH,Gust SpeedMPH,PrecipitationIn,Events,Conditions,WindDirDegrees,DateUTC
12:00 AM,-9999,-9999,N/A,29.89,-9999.0,East,10.4,-,N/A,,Unknown,100,2012-12-22 04:00:00
1:00 AM,78.8,77.0,94,29.86,-9999.0,ESE,10.4,-,N/A,,Unknown,110,2012-12-22 05:00:00
2:00 AM,78.8,75.2,89,29.86,-9999.0,East,10.4,-,N/A,,Unknown,100,2012-12-22 06:00:00
3:00 AM,78.8,75.2,89,29.83,-9999.0,East,10.4,-,N/A,,Unknown,100,2012-12-22 07:00:00
4:00 AM,80.6,75.2,84,29.83,-9999.0,East,11.5,-,N/A,,Unknown,100,2012-12-22 08:00:00
5:00 AM,80.6,75.2,84,29.83,-9999.0,East,11.5,-,N/A,,Unknown,100,2012-12-22 09:00:00
6:00 AM,78.8,75.2,89,29.86,-9999.0,East,11.5,-,N/A,,Unknown,90,2012-12-22 10:00:00
7:00 AM,80.6,75.2,84,29.86,-9999.0,East,13.8,-,N/A,,Unknown,100,2012-12-22 11:00:00
8:00 AM,80.6,75.2,84,29.89,-9999.0,East,11.5,-,N/A,,Unknown,90,2012-12-22 12:00:00
9:00 AM,80.6,75.2,84,29.92,6.2,East,13.8,-,N/A,,Scattered Clouds,100,2012-12-22 13:00:00
10:00 AM,77.0,75.2,94,29.92,6.2,East,11.5,-,N/A,Rain,Light Rain Showers,90,2012-12-22 14:00:00
11:00 AM,79,73,78,29.94,12,East,13.8,,,Rain,Light Rain Showers,100,2012-12-22 15:00:00
11:00 AM,78.8,73.4,83,29.92,6.2,East,13.8,-,N/A,,Mostly Cloudy,100,2012-12-22 15:00:00
1:00 PM,75.2,75.2,100,29.89,3.1,East,9.2,-,N/A,Rain,Light Rain Showers,100,2012-12-22 17:00:00
2:00 PM,79,78,95,,3,East,5.8,,,,Clear,80,2012-12-22 18:00:00
2:00 PM,78.8,78.8,100,29.89,3.1,East,5.8,-,N/A,Rain,Light Rain Showers,80,2012-12-22 18:00:00
3:00 PM,78.8,78.8,100,29.86,6.2,NE,3.5,-,N/A,Rain,Light Rain Showers,50,2012-12-22 19:00:00
4:00 PM,77.0,75.2,94,29.86,6.2,ENE,11.5,-,N/A,,Scattered Clouds,70,2012-12-22 20:00:00
4:07 PM,77.0,75.2,94,29.86,6.2,ENE,11.5,-,N/A,Thunderstorm,Thunderstorm,70,2012-12-22 20:07:00
5:00 PM,76,74,90,29.86,12,East,13.8,,,Thunderstorm,Light Thunderstorm,90,2012-12-22 21:00:00
5:00 PM,77.0,73.4,89,29.83,6.2,East,13.8,-,N/A,,Scattered Clouds,90,2012-12-22 21:00:00
6:00 PM,78.8,77.0,94,29.83,6.2,ENE,8.1,-,N/A,,Scattered Clouds,70,2012-12-22 22:00:00
7:00 PM,78.8,77.0,94,29.83,6.2,East,12.7,-,N/A,,Scattered Clouds,80,2012-12-22 23:00:00
8:00 PM,80,76,86,29.89,12,East,11.5,,,,Partly Cloudy,90,2012-12-23 00:00:00
8:00 PM,80.6,77.0,89,29.86,6.2,East,11.5,-,N/A,,Scattered Clouds,80,2012-12-23 00:00:00
9:00 PM,80.6,75.2,84,29.89,-9999.0,East,12.7,-,N/A,,Scattered Clouds,90,2012-12-23 01:00:00
10:00 PM,80.6,75.2,84,29.92,-9999.0,East,12.7,-,N/A,,Scattered Clouds,90,2012-12-23 02:00:00
11:00 PM,80,76,85,,,East,11.5,,,,Clear,90,2012-12-23 03:00:00
11:00 PM,80.6,77.0,89,29.92,-9999.0,East,11.5,-,N/A,,Unknown,90,2012-12-23 03:00:00